Accueil
METAR-TAF:

METAR-TAF

Aéroports :

Claremore, Oklahoma, États-Unis

latitude: 36-17-40N, longitude: 095-28-47W, altitude: 221 m

Observation

Le bulletin a été fait il y a 25 minutes, à 15:15 UTC
Vent 5 kt de nord/nord-est
Température 0°C
Humidité 55%
Pression 1036 hPa
Visibilité: 16.1 km
Ciel clair

METAR: KGCM 191515Z AUTO 02005KT 10SM CLR 00/M08 A3059 RMK AO2

Heure: 09:40 (15:40 UTC)


TAF: absent

Observations et prévisions météorologiques de plus de 4000 aéroports (messages METAR et TAF).

Les stations disponibles sont représentées par des disques jaunes et rouges sur la carte.

Passer la souris dessus pour voir le nom de la station.

Cliquer dessus pour voir les observations et prévisions météorologiques.

Pour changer de carte: cliquez sur les boutons verts avec une croix noire pour zoomer, sur le bouton vert avec un tiret pour effectuer un zoom arrière, ou sur les flèches vertes pour les cartes adjacentes.


METAR-TAF: